RS12S

Last updated on Sun Aug 28 2022 00:02:06 GMT+0000 (Coordinated Universal Time)

1 53313U 98067TY 22239.46004117 .00027906 00000+0 45132-3 0 9997 2 53313 51.6427 343.1482 0001461 189.0116 171.0848 15.52612523 5775

Satellite not in orbit

RS12S